This demonstration page uses our WeatherBlox Daily Observations layout. Learn more.

Left ArrowRight Arrow

44.89941, -97.11507

Hourly Observations for September 21, 2018

Temp ( °F °C ) Dew Point ( °F °C ) Humidity (%) Winds ( mph kmh ) Pressure ( in mb ) Visibility ( mi km ) Precip ( " mm )
12:53 am 00:53 Cloudy 51 10.6 50 10 96 96 WNW 18 30 29.81 1010 10 16 0.00 0.00
1:53 am 01:53 Cloudy 50 10 50 10 100 100 NW 23 37 29.83 1010 9 14 0.00 0.00
2:53 am 02:53 Cloudy 47 8.3 47 8.3 100 100 WNW 17 28 29.86 1011 7 11 0.00 0.00
3:53 am 03:53 Cloudy 46 7.8 44 6.7 93 93 NW 24 39 29.91 1013 10 16 0.00 0.00
4:26 am 04:26 Cloudy 45 7.2 44 6.7 97 97 NW 22 35 29.94 1014 10 16 0.00 0.00
4:53 am 04:53 Cloudy 45 7.2 44 6.7 97 97 NW 16 26 29.95 1014 9 14 0.00 0.00
5:43 am 05:43 Cloudy 44 6.7 43 6.1 96 96 NW 17 28 30.03 1017 8 13 0.00 0.00
5:53 am 05:53 Cloudy with Mist and Fog 43 6.1 43 6.1 100 100 NW 17 28 30.01 1016 5 8 0.00 0.00
6:04 am 06:04 Cloudy with Mist and Fog 43 6.1 43 6.1 100 100 NW 21 33 30.03 1017 3 5 0.00 0.00
6:30 am 06:30 Cloudy with Mist and Fog 43 6.1 43 6.1 100 100 NW 22 35 30.06 1018 5 8 0.00 0.00
6:53 am 06:53 Cloudy 43 6.1 42 5.6 97 97 NW 23 37 30.07 1018 10 16 0.00 0.00
7:16 am 07:16 Cloudy with Mist and Fog 43 6.1 42 5.6 97 97 NW 18 30 30.12 1020 6 10 0.00 0.00
7:25 am 07:25 Cloudy 43 6.1 42 5.6 97 97 NW 21 33 30.12 1020 8 13 0.00 0.00
7:53 am 07:53 Cloudy 43 6.1 42 5.6 97 97 NNW 22 35 30.13 1020 10 16 0.00 0.00
8:53 am 08:53 Cloudy 43 6.1 41 5 93 93 NNW 21 33 30.18 1022 10 16 0.00 0.00
9:43 am 09:43 Cloudy 44 6.7 40 4.4 85 85 NW 21 33 30.21 1023 10 16 0.00 0.00
9:53 am 09:53 Cloudy 44 6.7 41 5 89 89 NNW 20 31 30.21 1023 10 16 0.00 0.00
10:53 am 10:53 Cloudy 46 7.8 40 4.4 79 79 NNW 22 35 30.26 1025 10 16 0.00 0.00
11:38 am 11:38 Mostly Cloudy 49 9.4 39 3.9 69 69 N 22 35 30.30 1026 10 16 0.00 0.00
11:53 am 11:53 Mostly Cloudy 50 10 40 4.4 68 68 N 21 33 30.28 1025 10 16 0.00 0.00
12:00 pm 12:00 Mostly Cloudy 48 8.9 39 3.9 71 71 N 23 37 30.30 1026 10 16 0.00 0.00
12:53 pm 12:53 Partly Cloudy 51 10.6 39 3.9 64 64 NNW 15 24 30.29 1026 10 16 0.00 0.00
1:53 pm 13:53 Mostly Cloudy 53 11.7 38 3.3 57 57 NNW 17 28 30.28 1025 10 16 0.00 0.00
2:53 pm 14:53 Partly Cloudy 55 12.8 39 3.9 55 55 N 15 24 30.28 1025 10 16 0.00 0.00
3:53 pm 15:53 Mostly Cloudy 56 13.3 38 3.3 51 51 N 8 13 30.28 1025 10 16 0.00 0.00
4:53 pm 16:53 Partly Cloudy 56 13.3 38 3.3 51 51 NE 6 9 30.28 1026 10 16 0.00 0.00
5:53 pm 17:53 Sunny 56 13.3 36 2.2 47 47 Calm 30.29 1026 10 16 0.00 0.00
6:53 pm 18:53 Sunny 54 12.2 36 2.2 51 51 E 3 6 30.29 1026 10 16 0.00 0.00
7:53 pm 19:53 Clear 51 10.6 38 3.3 61 61 SE 3 6 30.30 1026 10 16 0.00 0.00
8:53 pm 20:53 Clear 48 8.9 38 3.3 68 68 SE 5 7 30.32 1027 10 16 0.00 0.00
9:53 pm 21:53 Clear 46 7.8 39 3.9 77 77 SSE 5 7 30.33 1027 10 16 0.00 0.00
10:53 pm 22:53 Clear 45 7.2 39 3.9 80 80 SSE 5 7 30.33 1027 10 16 0.00 0.00
11:53 pm 23:53 Clear 43 6.1 40 4.4 89 89 SSE 5 7 30.32 1027 10 16 0.00 0.00

Powered by AerisWeather